WE1C Weather Reports


time (UTC)temp
C
wind
direction
speed
KPH
gust
KPH
rain 1hr
cm
rain 24hr
cm
rain mn
cm
humidity
%
barometer
mb
20260502191044 9 193 1.6 1.6 0.00 0.23 0.23 83 1039.2
20260502190542 9 188 0.0 0.0 0.00 0.23 0.23 85 1039.5
20260502190038 9 188 1.6 1.6 0.00 0.23 0.23 85 1039.5
20260502190002 9 188 1.6 3.2 0.00 0.00 0.20 85 1010.7
20260502185533 9 178 0.0 0.0 0.00 0.23 0.23 84 1039.3
20260502185030 9 197 1.6 1.6 0.00 0.23 0.23 83 1039.5
20260502185002 9 197 1.6 3.2 0.00 0.00 0.20 83 1010.7
20260502184526 9 180 0.0 1.6 0.00 0.23 0.23 82 1039.3
20260502184503 9 180 1.6 3.2 0.00 0.00 0.20 82 1010.5
20260502184022 10 78 1.6 3.2 0.00 0.23 0.23 79 1039.5
20260502184003 10 78 3.2 4.8 0.00 0.00 0.20 79 1010.7
20260502183519 11 237 3.2 4.8 0.00 0.23 0.23 74 1039.3
20260502183502 11 237 3.2 6.4 0.00 0.00 0.20 74 1010.5
20260502183015 12 187 0.0 0.0 0.00 0.23 0.23 70 1039.2
20260502182510 12 187 3.2 3.2 0.00 0.23 0.23 70 1039.1
20260502182502 12 187 4.8 4.8 0.00 0.00 0.20 70 1010.3
20260502182006 11 162 1.6 3.2 0.00 0.23 0.23 71 1039.3
20260502182003 11 162 3.2 4.8 0.00 0.00 0.20 71 1010.5
20260502181504 11 318 3.2 3.2 0.00 0.23 0.23 70 1039.3
20260502181502 11 318 4.8 4.8 0.00 0.00 0.20 70 1010.5
20260502181003 11 196 0.0 0.0 0.00 0.00 0.20 71 1010.6
20260502180502 11 206 4.8 6.4 0.00 0.00 0.20 70 1010.3
20260502180459 11 206 4.8 4.8 0.00 0.23 0.23 70 1039.1
20260502170502 11 190 3.2 4.8 0.00 0.00 0.20 74 1011.1
20260502170418 11 207 3.2 3.2 0.00 0.23 0.23 73 1039.7
20260502164002 10 188 3.2 3.2 0.00 0.00 0.20 83 1010.8
20260502163902 10 169 1.6 1.6 0.00 0.23 0.23 83 1039.9
20260502163502 10 189 3.2 4.8 0.00 0.00 0.20 83 1010.9
20260502163358 10 176 0.0 1.6 0.00 0.23 0.23 83 1039.9
20260502163003 10 183 3.2 3.2 0.00 0.00 0.20 83 1011.0
20260502162856 10 194 0.0 0.0 0.00 0.23 0.23 83 1039.9
20260502162502 10 175 1.6 3.2 0.00 0.00 0.20 83 1011.0
20260502162352 10 165 1.6 3.2 0.00 0.23 0.23 83 1039.8
20260502162002 10 221 0.0 0.0 0.00 0.00 0.20 84 1011.2
20260502161849 10 358 1.6 3.2 0.00 0.23 0.23 84 1039.8
20260502161345 10 180 1.6 3.2 0.00 0.23 0.23 84 1040.0
20260502161003 10 193 1.6 3.2 0.00 0.00 0.20 84 1011.1
20260502160843 10 148 0.0 1.6 0.00 0.23 0.23 84 1040.0
20260502160502 10 78 3.2 4.8 0.00 0.00 0.20 84 1011.2
20260502160342 10 186 1.6 3.2 0.00 0.23 0.23 84 1040.1
20260502152317 9 181 0.0 1.6 0.00 0.23 0.23 87 1040.6
20260502152002 9 154 0.0 0.0 0.00 0.00 0.20 88 1011.7
20260502151814 9 164 1.6 1.6 0.00 0.23 0.23 88 1040.2
20260502151502 9 114 1.6 3.2 0.00 0.00 0.20 88 1011.6
20260502151311 9 180 1.6 1.6 0.00 0.23 0.23 87 1040.6
20260502151003 9 160 1.6 3.2 0.00 0.00 0.20 88 1011.9
20260502150809 9 144 0.0 1.6 0.00 0.23 0.23 88 1040.3
20260502150502 9 192 1.6 3.2 0.00 0.00 0.20 87 1011.6
20260502150305 9 194 0.0 0.0 0.00 0.23 0.23 87 1040.4
20260502130653 7 181 1.6 1.6 0.00 0.23 0.23 98 1041.5
20260502130502 7 180 1.6 3.2 0.00 0.00 0.20 98 1012.7
20260502130151 7 177 1.6 1.6 0.00 0.23 0.23 98 1041.5
20260502123636 7 146 0.0 1.6 0.00 0.23 0.23 98 1041.5
20260502123503 7 129 0.0 0.0 0.00 0.00 0.20 98 1012.8
20260502123133 7 148 0.0 0.0 0.00 0.23 0.23 99 1041.5
20260502123003 7 149 0.0 0.0 0.00 0.00 0.20 99 1012.7
20260502122630 6 151 0.0 0.0 0.00 0.23 0.23 98 1041.5
20260502122502 6 153 0.0 0.0 0.00 0.00 0.20 98 1012.7
20260502122126 6 153 0.0 0.0 0.00 0.23 0.23 98 1041.3
20260502122003 6 153 0.0 0.0 0.00 0.00 0.20 98 1012.6
20260502121624 6 166 0.0 0.0 0.00 0.23 0.23 98 1041.4
20260502121503 6 166 0.0 0.0 0.00 0.00 0.20 98 1012.5
20260502121121 6 166 0.0 0.0 0.00 0.23 0.23 98 1041.7
20260502120618 6 166 0.0 0.0 0.13 0.23 0.23 98 1041.4
20260502120115 6 164 0.0 0.0 0.13 0.20 0.20 98 1041.4
20260502115613 6 337 1.6 1.6 0.30 0.20 0.20 98 1041.4
20260502115503 6 58 1.6 3.2 0.28 0.00 0.18 98 1012.4
20260502115108 6 168 0.0 0.0 0.18 0.18 0.18 98 1041.2
20260502115002 6 168 0.0 0.0 0.18 0.00 0.18 98 1012.4
20260502114605 6 169 0.0 1.6 0.00 0.15 0.15 98 1041.3
20260502114102 6 267 0.0 0.0 0.00 0.15 0.15 98 1041.4
20260502114002 6 290 0.0 0.0 0.00 0.00 0.13 98 1012.5
20260502113559 6 200 0.0 0.0 0.00 0.15 0.15 98 1041.2
20260502113058 6 28 0.0 0.0 0.00 0.15 0.15 98 1040.9
20260502113002 6 27 0.0 0.0 0.00 0.00 0.13 98 1011.9
20260502112555 6 214 1.6 1.6 0.13 0.15 0.15 98 1040.9
20260502112502 6 188 0.0 0.0 0.10 0.00 0.13 98 1012.3
20260502112053 6 188 0.0 0.0 0.23 0.15 0.15 98 1041.2
20260502112003 6 255 1.6 3.2 0.23 0.00 0.13 98 1012.0
20260502111550 6 351 0.0 1.6 0.13 0.13 0.13 98 1041.4
20260502111502 6 223 0.0 0.0 0.10 0.00 0.13 98 1012.7
20260502111047 6 12 0.0 1.6 0.13 0.10 0.10 98 1041.5
20260502111002 6 216 1.6 3.2 0.10 0.00 0.10 98 1012.9
20260502110544 6 235 1.6 1.6 0.30 0.10 0.10 98 1041.3
20260502110042 7 182 0.0 0.0 0.30 0.10 0.10 98 1041.2
20260502110003 7 182 0.0 0.0 0.28 0.00 0.08 98 1012.4
20260502105539 7 182 0.0 0.0 0.00 0.05 0.05 97 1040.9
20260502105502 7 182 0.0 0.0 0.00 0.00 0.03 97 1012.1
20260502105037 7 182 0.0 0.0 0.00 0.05 0.05 97 1041.2
20260502105002 7 182 0.0 0.0 0.00 0.00 0.03 97 1012.4
20260502104533 6 182 0.0 0.0 0.13 0.05 0.05 97 1040.7
20260502104503 6 182 0.0 0.0 0.10 0.00 0.03 97 1011.9
20260502104031 6 182 0.0 0.0 0.13 0.05 0.05 97 1040.4
20260502103529 6 182 0.0 0.0 0.00 0.03 0.03 96 1040.3
20260502103503 6 182 0.0 0.0 0.00 0.00 0.00 96 1011.5
20260502103027 6 182 0.0 0.0 0.00 0.03 0.03 96 1040.6
20260502103003 6 182 0.0 0.0 0.00 0.00 0.00 96 1011.8
20260502102523 6 182 1.6 1.6 0.00 0.03 0.03 96 1040.6
20260502102503 6 182 1.6 3.2 0.00 0.00 0.00 96 1011.8
20260502102020 6 182 0.0 0.0 0.00 0.03 0.03 95 1040.5
20260502101518 6 182 0.0 0.0 0.00 0.03 0.03 95 1040.5
20260502101503 6 182 0.0 0.0 0.00 0.00 0.00 95 1011.7
20260502101016 6 182 0.0 0.0 0.00 0.03 0.03 95 1040.4
20260502101002 6 182 0.0 0.0 0.00 0.00 0.00 95 1011.6
20260502100514 6 182 0.0 0.0 0.00 0.03 0.03 95 1040.3
20260502100502 6 182 0.0 0.0 0.00 0.00 0.00 95 1011.5
20260502091449 6 161 0.0 0.0 0.00 0.03 0.03 91 1040.5
20260502091003 6 200 0.0 0.0 0.10 0.00 0.00 90 1011.4
20260502090946 6 200 0.0 0.0 0.13 0.03 0.03 90 1040.2
20260502090502 6 153 1.6 3.2 0.10 0.00 0.00 90 1011.6
20260502090443 6 175 0.0 0.0 0.13 0.03 0.03 90 1040.3
20260502071337 7 224 0.0 0.0 0.00 0.00 0.00 80 1040.5
20260502071003 7 224 1.6 3.2 0.00 0.00 0.00 79 1011.6
20260502070835 7 235 1.6 1.6 0.00 0.00 0.00 79 1040.2
20260502070502 7 250 0.0 0.0 0.00 0.00 0.00 79 1011.4
20260502070333 7 250 0.0 0.0 0.00 0.00 0.00 79 1040.1
20260502070003 7 250 0.0 0.0 0.00 0.00 0.00 78 1011.4
20260502065831 7 251 0.0 0.0 0.00 0.00 0.00 78 1040.5
20260502065502 8 272 0.0 0.0 0.00 0.00 0.00 78 1011.7
20260502065329 8 335 1.6 1.6 0.00 0.00 0.00 77 1040.5
20260502065003 8 24 1.6 3.2 0.00 0.00 0.00 77 1011.4
20260502064827 8 15 0.0 0.0 0.00 0.00 0.00 76 1040.5
20260502064503 8 13 1.6 3.2 0.00 0.00 0.00 74 1011.6
20260502064325 8 16 0.0 1.6 0.00 0.00 0.00 75 1040.5
20260502064002 7 14 3.2 3.2 0.00 0.00 0.00 75 1011.5
20260502063822 7 244 0.0 1.6 0.00 0.00 0.00 74 1040.4
20260502063320 7 244 0.0 0.0 0.00 0.00 0.00 74 1040.7
20260502063002 7 244 0.0 0.0 0.00 0.00 0.00 74 1011.9
20260502062816 7 244 0.0 0.0 0.00 0.00 0.00 73 1040.5
20260502062502 7 244 0.0 0.0 0.00 0.00 0.00 72 1011.8
20260502062314 7 244 0.0 0.0 0.00 0.00 0.00 73 1040.2
20260502062002 7 244 1.6 3.2 0.00 0.00 0.00 72 1011.7
20260502061813 7 244 0.0 0.0 0.00 0.00 0.00 74 1040.6
20260502061502 7 244 0.0 0.0 0.00 0.00 0.00 74 1012.0
20260502061310 7 244 0.0 0.0 0.00 0.00 0.00 74 1041.0
20260502061003 6 242 0.0 0.0 0.00 0.00 0.00 74 1012.1
20260502060805 6 242 0.0 0.0 0.00 0.00 0.00 74 1040.7
20260502060502 6 242 0.0 0.0 0.00 0.00 0.00 74 1011.9
20260502060301 6 242 0.0 0.0 0.00 0.00 0.00 74 1040.6
20260502060002 6 243 1.6 3.2 0.00 0.00 0.00 74 1011.8
20260502055759 6 244 0.0 0.0 0.00 0.00 0.00 74 1040.7
20260502055256 6 244 0.0 0.0 0.00 0.00 0.00 72 1040.5
20260502054755 6 244 0.0 0.0 0.00 0.00 0.00 72 1040.7
20260502054502 6 246 0.0 0.0 0.00 0.00 0.00 72 1011.9
20260502054253 6 197 1.6 1.6 0.00 0.00 0.00 72 1040.5
20260502054003 6 196 1.6 3.2 0.00 0.00 0.00 72 1011.8
20260502053750 6 196 1.6 1.6 0.00 0.00 0.00 72 1040.4
20260502053503 6 174 0.0 0.0 0.00 0.00 0.00 72 1011.5
20260502053247 6 173 0.0 0.0 0.00 0.00 0.00 70 1040.2
20260502053002 6 174 0.0 0.0 0.00 0.00 0.00 71 1011.6
20260502052745 6 174 0.0 0.0 0.00 0.00 0.00 72 1040.4
20260502052502 6 173 3.2 3.2 0.00 0.00 0.00 71 1011.5
20260502052243 6 103 0.0 0.0 0.00 0.00 0.00 70 1040.4
20260502052003 6 169 0.0 0.0 0.00 0.00 0.00 70 1011.7
20260502051740 6 170 0.0 0.0 0.00 0.00 0.00 70 1040.5
20260502051503 6 170 0.0 0.0 0.00 0.00 0.00 70 1011.9
20260502051239 6 170 0.0 0.0 0.00 0.00 0.00 71 1040.6
20260502050735 6 170 0.0 0.0 0.00 0.00 0.00 71 1040.7
20260502050502 6 170 0.0 0.0 0.00 0.00 0.00 71 1011.6
20260502050231 6 169 0.0 0.0 0.00 0.00 0.00 70 1040.6
20260502050003 6 169 0.0 0.0 0.00 0.00 0.00 71 1011.9
20260502045728 6 170 0.0 0.0 0.00 0.00 0.00 70 1040.8
20260502045225 6 170 0.0 1.6 0.00 0.00 0.00 69 1040.5
20260502045002 6 170 0.0 0.0 0.00 0.00 0.00 69 1011.7
20260502044722 6 170 0.0 0.0 0.00 0.00 0.00 69 1040.5
20260502044503 6 170 0.0 0.0 0.00 0.00 0.00 69 1011.8
20260502044218 6 170 0.0 0.0 0.00 0.00 0.00 70 1040.6
20260502044002 6 170 0.0 0.0 0.00 0.00 0.00 71 1011.6
20260502043716 6 170 0.0 0.0 0.00 0.00 0.00 71 1040.4
20260502043214 6 170 0.0 0.0 0.00 0.00 0.00 71 1040.6
20260502043002 6 170 0.0 0.0 0.00 0.00 0.00 71 1011.7
20260502042712 6 170 0.0 0.0 0.00 0.00 0.00 71 1040.6
20260502042503 6 170 0.0 0.0 0.00 0.00 0.00 72 1011.7
20260502042210 6 170 0.0 1.6 0.00 0.00 0.00 72 1040.6
20260502042002 6 170 1.6 3.2 0.00 0.00 0.00 72 1011.7
20260502041708 6 170 0.0 0.0 0.00 0.00 0.00 71 1040.6
20260502041502 6 170 1.6 3.2 0.00 0.00 0.00 71 1011.7
20260502041204 6 169 0.0 0.0 0.00 0.00 0.00 71 1040.6
20260502041003 6 169 0.0 0.0 0.00 0.00 0.00 71 1011.8
20260502040701 6 170 0.0 0.0 0.00 0.00 0.00 71 1040.7
20260502040502 6 170 0.0 0.0 0.00 0.00 0.00 72 1012.0
20260502040159 6 170 0.0 0.0 0.00 0.00 0.00 69 1040.7
20260502040002 6 170 0.0 0.0 0.00 0.00 0.00 69 1012.0
20260502035655 6 170 0.0 0.0 0.00 0.00 0.00 69 1040.9
20260502035503 6 170 0.0 0.0 0.00 0.00 0.00 68 1012.1
20260502035151 6 170 0.0 0.0 0.00 0.00 0.00 68 1040.9
20260502035003 6 170 0.0 0.0 0.00 0.00 0.00 68 1011.9
20260502034649 6 170 0.0 0.0 0.00 0.00 0.00 68 1040.8
20260502034502 6 170 0.0 0.0 0.00 0.00 0.00 68 1011.8
20260502034148 6 170 0.0 0.0 0.00 0.00 0.00 67 1040.7
20260502033645 6 170 0.0 0.0 0.00 0.00 0.00 67 1040.8
20260502033503 6 170 0.0 0.0 0.00 0.00 0.00 68 1011.9
20260502033143 6 170 0.0 0.0 0.00 0.00 0.00 68 1040.8
20260502033002 6 170 0.0 0.0 0.00 0.00 0.00 69 1012.0
20260502032639 6 170 0.0 0.0 0.00 0.00 0.00 70 1040.8
20260502032502 6 170 0.0 0.0 0.00 0.00 0.00 70 1012.0
20260502032135 6 170 0.0 0.0 0.00 0.00 0.00 71 1040.8
20260502032003 6 170 0.0 0.0 0.00 0.00 0.00 71 1012.0
20260502031633 6 170 0.0 0.0 0.00 0.00 0.00 71 1040.8
20260502031502 6 170 0.0 0.0 0.00 0.00 0.00 71 1012.1
20260502031131 6 170 0.0 0.0 0.00 0.00 0.00 71 1040.9
20260502031002 6 170 1.6 3.2 0.00 0.00 0.00 70 1012.0
20260502030629 6 170 0.0 1.6 0.00 0.00 0.00 70 1040.7
20260502030503 6 170 0.0 0.0 0.00 0.00 0.00 70 1011.9
20260502030127 6 170 0.0 0.0 0.00 0.00 0.00 70 1040.7
20260502030002 6 170 0.0 0.0 0.00 0.00 0.00 70 1011.7
20260502025624 6 170 0.0 0.0 0.00 0.00 0.00 70 1040.7
20260502025503 6 170 0.0 0.0 0.00 0.00 0.00 70 1011.9
20260502025122 6 170 0.0 0.0 0.00 0.00 0.00 69 1040.7
20260502025002 6 170 0.0 0.0 0.00 0.00 0.00 70 1011.7
20260502024620 6 170 0.0 0.0 0.00 0.00 0.00 69 1040.5
20260502024502 6 170 0.0 0.0 0.00 0.00 0.00 69 1011.8
20260502024117 6 170 0.0 0.0 0.00 0.00 0.00 69 1040.5
20260502024003 6 170 0.0 0.0 0.00 0.00 0.00 69 1011.7
20260502023615 6 170 0.0 0.0 0.00 0.00 0.00 68 1040.4
20260502023112 6 170 0.0 0.0 0.00 0.00 0.00 69 1040.4
20260502023003 6 170 0.0 0.0 0.00 0.00 0.00 69 1011.7
20260502022609 6 170 0.0 0.0 0.00 0.00 0.00 69 1040.6
20260502022502 6 170 0.0 0.0 0.00 0.00 0.00 70 1011.6
20260502022106 6 170 0.0 0.0 0.00 0.00 0.00 69 1040.6
20260502022002 6 170 0.0 0.0 0.00 0.00 0.00 69 1011.6
20260502021603 6 170 0.0 0.0 0.00 0.00 0.00 69 1040.6
20260502021503 6 170 0.0 0.0 0.00 0.00 0.00 68 1011.6
20260502021100 6 170 0.0 0.0 0.00 0.00 0.00 69 1040.5
20260502021002 6 170 0.0 0.0 0.00 0.00 0.00 69 1011.9
20260502020557 6 170 0.0 0.0 0.00 0.00 0.00 70 1040.6
20260502020502 6 170 0.0 0.0 0.00 0.00 0.00 69 1011.8
20260502020054 6 170 0.0 0.0 0.00 0.00 0.00 69 1040.4
20260502020003 6 170 0.0 0.0 0.00 0.00 0.00 69 1011.7
20260502015552 6 170 0.0 0.0 0.00 0.00 0.00 69 1040.3
20260502015503 6 170 0.0 0.0 0.00 0.00 0.00 69 1011.6
20260502015048 6 170 0.0 0.0 0.00 0.00 0.00 68 1040.5
20260502015003 6 170 0.0 0.0 0.00 0.00 0.00 68 1011.7
20260502014545 6 170 0.0 0.0 0.00 0.00 0.00 67 1040.7
20260502014502 6 170 0.0 0.0 0.00 0.00 0.00 67 1011.8
20260502014043 6 170 0.0 0.0 0.00 0.00 0.00 67 1040.5
20260502014002 6 170 0.0 0.0 0.00 0.00 0.00 67 1011.7
20260502013538 6 170 0.0 0.0 0.00 0.00 0.00 67 1040.3
20260502013503 6 170 0.0 0.0 0.00 0.00 0.00 67 1011.5
20260502013034 6 170 0.0 0.0 0.00 0.00 0.00 66 1040.5
20260502013003 6 170 0.0 0.0 0.00 0.00 0.00 66 1011.7
20260502012532 6 170 0.0 0.0 0.00 0.00 0.00 65 1040.3
20260502012029 6 170 0.0 0.0 0.00 0.00 0.00 65 1040.6
20260502011526 6 169 0.0 0.0 0.00 0.00 0.00 65 1040.4
20260502011022 7 170 0.0 0.0 0.00 0.00 0.00 62 1040.3
20260502011002 7 170 0.0 0.0 0.00 0.00 0.00 62 1011.5
20260502010520 7 170 0.0 0.0 0.00 0.00 0.00 61 1040.4
20260502010503 7 170 0.0 0.0 0.00 0.00 0.00 61 1011.6
20260502010016 7 169 1.6 1.6 0.00 0.00 0.00 61 1040.1
20260502010002 7 169 1.6 3.2 0.00 0.00 0.00 61 1011.3
20260502005514 7 166 0.0 0.0 0.00 0.00 0.00 60 1040.1
20260502005503 7 166 0.0 0.0 0.00 0.00 0.00 60 1011.3
20260502005012 7 166 0.0 0.0 0.00 0.00 0.00 59 1040.1
20260502005002 7 166 0.0 0.0 0.00 0.00 0.00 59 1011.3
20260502004507 7 166 0.0 0.0 0.00 0.00 0.00 59 1040.0
20260502004004 8 166 0.0 0.0 0.00 0.00 0.00 57 1039.9
20260502004002 8 166 0.0 0.0 0.00 0.00 0.00 57 1011.1
20260502003502 8 166 0.0 0.0 0.00 0.00 0.00 56 1011.1
20260502002957 8 166 0.0 0.0 0.00 0.00 0.00 55 1039.9
20260502002455 8 166 0.0 0.0 0.00 0.00 0.00 57 1039.8
20260502002002 9 166 0.0 0.0 0.00 0.00 0.00 54 1011.0
20260502001952 9 166 0.0 0.0 0.00 0.00 0.00 54 1039.8
20260502001502 9 166 0.0 0.0 0.00 0.00 0.00 53 1010.9
20260502001449 9 166 0.0 0.0 0.00 0.00 0.00 53 1039.7
20260502001003 9 166 1.6 3.2 0.00 0.00 0.00 53 1010.7
20260502000948 9 166 0.0 1.6 0.00 0.00 0.00 53 1039.5
20260502000502 10 166 0.0 0.0 0.00 0.00 0.00 53 1010.5
20260502000447 10 166 0.0 0.0 0.00 0.00 0.00 53 1039.3
20260502000003 10 166 1.6 3.2 0.00 0.00 0.00 53 1010.7
20260501235941 10 166 0.0 1.6 0.00 0.00 0.00 53 1039.3
20260501235502 10 166 1.6 3.2 0.00 0.00 0.00 53 1010.6
20260501235437 10 166 0.0 0.0 0.00 0.00 0.00 53 1039.2
20260501235002 10 166 0.0 0.0 0.00 0.00 0.00 52 1010.3
20260501234932 10 166 0.0 1.6 0.00 0.00 0.00 53 1039.4
20260501234503 11 159 0.0 0.0 0.00 0.00 0.00 50 1010.5
20260501234429 11 166 0.0 0.0 0.00 0.00 0.00 51 1039.0
20260501233928 11 163 0.0 0.0 0.00 0.00 0.00 50 1039.1
20260501233502 11 164 0.0 0.0 0.00 0.00 0.00 49 1010.1
20260501233425 11 159 0.0 0.0 0.00 0.00 0.00 47 1039.0
20260501233003 11 154 0.0 0.0 0.00 0.00 0.00 46 1010.3
20260501232920 12 161 0.0 0.0 0.00 0.00 0.00 48 1039.0
20260501232502 12 154 0.0 0.0 0.00 0.00 0.00 47 1010.1
20260501232418 12 165 0.0 0.0 0.00 0.00 0.00 45 1039.0
20260501232003 12 164 0.0 0.0 0.00 0.00 0.00 41 1010.0
20260501231915 12 165 0.0 1.6 0.00 0.00 0.00 42 1038.7
20260501231503 12 162 1.6 3.2 0.00 0.00 0.00 42 1010.0
20260501231414 12 162 0.0 0.0 0.00 0.00 0.00 43 1038.5
20260501231002 13 179 0.0 0.0 0.00 0.00 0.00 40 1010.0
20260501230912 13 179 1.6 1.6 0.00 0.00 0.00 39 1038.4
20260501230503 13 159 1.6 3.2 0.00 0.00 0.00 45 1009.8
20260501230410 13 158 0.0 1.6 0.00 0.00 0.00 44 1038.4
20260501230003 13 243 0.0 0.0 0.00 0.00 0.00 42 1009.6
20260501225907 13 245 1.6 1.6 0.00 0.00 0.00 43 1038.4
20260501225503 13 78 0.0 0.0 0.00 0.00 0.00 39 1009.6
20260501225405 13 44 1.6 1.6 0.00 0.00 0.00 36 1038.3
20260501225003 13 133 0.0 0.0 0.00 0.00 0.00 38 1009.7
20260501224900 13 191 1.6 1.6 0.00 0.00 0.00 38 1038.1
20260501224358 13 181 1.6 1.6 0.00 0.00 0.00 40 1038.2
20260501224002 13 198 1.6 3.2 0.00 0.00 0.00 42 1009.6
20260501223854 13 187 1.6 1.6 0.00 0.00 0.00 42 1038.4
20260501223503 13 144 0.0 0.0 0.00 0.00 0.00 38 1009.6
20260501223350 13 166 0.0 0.0 0.00 0.00 0.00 39 1038.3
20260501223002 14 200 0.0 0.0 0.00 0.00 0.00 37 1009.7
20260501222846 14 223 1.6 1.6 0.00 0.00 0.00 35 1038.3
20260501222503 14 207 3.2 4.8 0.00 0.00 0.00 37 1009.6
20260501222344 14 219 3.2 8.0 0.00 0.00 0.00 37 1038.2
20260501222003 14 178 3.2 6.4 0.00 0.00 0.00 36 1009.6
20260501221840 15 207 4.8 4.8 0.00 0.00 0.00 38 1038.5
20260501221502 15 190 1.6 3.2 0.00 0.00 0.00 37 1009.7
20260501221337 15 181 0.0 1.6 0.00 0.00 0.00 38 1038.4
20260501220836 15 353 4.8 4.8 0.00 0.00 0.00 35 1038.3
20260501220502 15 203 3.2 4.8 0.00 0.00 0.00 40 1009.5
20260501220333 15 125 0.0 0.0 0.00 0.00 0.00 36 1038.4
20260501215829 15 221 1.6 1.6 0.00 0.00 0.00 36 1038.2
20260501215326 15 125 0.0 0.0 0.00 0.00 0.00 35 1038.1
20260501214821 15 53 1.6 3.2 0.00 0.00 0.00 34 1038.1
20260501214502 15 180 1.6 3.2 0.00 0.00 0.00 37 1009.5
20260501214317 15 315 3.2 3.2 0.00 0.00 0.00 34 1038.2
20260501214003 15 111 1.6 3.2 0.00 0.00 0.00 35 1009.5
20260501213813 15 121 1.6 3.2 0.00 0.00 0.00 35 1038.3
20260501213502 15 196 3.2 4.8 0.00 0.00 0.00 35 1009.4
20260501213309 15 228 1.6 3.2 0.00 0.00 0.00 35 1038.3
20260501213003 15 339 4.8 4.8 0.00 0.00 0.00 35 1009.3
20260501212805 15 146 0.0 0.0 0.00 0.00 0.00 35 1038.1
20260501212305 15 170 0.0 1.6 0.00 0.00 0.00 33 1038.0
20260501212003 15 202 1.6 3.2 0.00 0.00 0.00 36 1009.2
20260501211759 15 24 4.8 9.7 0.00 0.00 0.00 33 1038.0
20260501211502 15 211 3.2 4.8 0.00 0.00 0.00 34 1009.1
20260501211257 15 176 1.6 1.6 0.00 0.00 0.00 34 1037.8
20260501211002 15 189 3.2 4.8 0.00 0.00 0.00 36 1009.4
20260501210753 15 225 1.6 1.6 0.00 0.00 0.00 33 1037.9
20260501210503 15 210 1.6 3.2 0.00 0.00 0.00 34 1009.2
20260501210250 15 181 3.2 3.2 0.00 0.00 0.00 34 1038.0
20260501205746 15 179 3.2 3.2 0.00 0.00 0.00 34 1038.0
20260501205243 15 22 4.8 4.8 0.00 0.00 0.00 34 1037.8
20260501205003 15 173 4.8 6.4 0.00 0.00 0.00 34 1009.2
20260501204740 15 1 1.6 3.2 0.00 0.00 0.00 34 1038.1
20260501204503 15 42 6.4 9.7 0.00 0.00 0.00 33 1009.1
20260501204237 15 219 3.2 3.2 0.00 0.00 0.00 34 1037.8
20260501203733 15 212 3.2 4.8 0.00 0.00 0.00 33 1037.9
20260501203231 15 230 4.8 8.0 0.00 0.00 0.00 33 1038.0
20260501203003 15 187 4.8 6.4 0.00 0.00 0.00 32 1008.9
20260501202727 15 239 3.2 4.8 0.00 0.00 0.00 31 1037.8
20260501202502 15 194 1.6 3.2 0.00 0.00 0.00 31 1009.1
20260501202224 15 217 1.6 1.6 0.00 0.00 0.00 33 1037.5
20260501202003 15 187 4.8 6.4 0.00 0.00 0.00 33 1009.0
20260501201721 15 237 1.6 1.6 0.00 0.00 0.00 35 1037.7
20260501201503 15 226 3.2 3.2 0.00 0.00 0.00 33 1009.0
20260501201218 16 248 6.4 8.0 0.00 0.00 0.00 31 1037.8
20260501201002 16 176 3.2 6.4 0.00 0.00 0.00 31 1009.1
20260501200715 16 266 3.2 8.0 0.00 0.00 0.00 35 1037.8
20260501200503 16 217 3.2 4.8 0.00 0.00 0.00 32 1009.0
20260501200212 16 234 6.4 9.7 0.00 0.00 0.00 31 1037.8
20260501200002 16 108 3.2 4.8 0.00 0.00 0.00 33 1009.0
20260501195709 16 299 6.4 8.0 0.00 0.00 0.00 30 1037.8
20260501195205 16 211 1.6 3.2 0.00 0.00 0.00 32 1037.7
20260501195003 16 58 3.2 6.4 0.00 0.00 0.00 38 1009.0
20260501194701 15 295 6.4 9.7 0.00 0.00 0.00 32 1037.8
20260501194502 15 226 11.3 14.5 0.00 0.00 0.00 32 1009.1
20260501194156 15 270 6.4 9.7 0.00 0.00 0.00 31 1037.6
20260501194002 15 97 6.4 8.0 0.00 0.00 0.00 32 1009.1
20260501193654 15 32 1.6 3.2 0.00 0.00 0.00 33 1037.8
20260501193503 16 317 9.7 11.3 0.00 0.00 0.00 31 1009.2
20260501193152 16 224 3.2 4.8 0.00 0.00 0.00 33 1037.8
20260501192649 16 38 6.4 9.7 0.00 0.00 0.00 30 1037.9
20260501192502 16 334 3.2 3.2 0.00 0.00 0.00 32 1009.1
20260501192147 15 235 3.2 3.2 0.00 0.00 0.00 31 1037.9
20260501191644 16 215 3.2 4.8 0.00 0.00 0.00 34 1037.8
20260501191503 16 215 4.8 6.4 0.00 0.00 0.00 34 1009.1